Location: Arlington
(40.6323°N, 74.1651°W)
Time: 04:53:53
(UTC+00:00)

AQUARIUS - Pass Details

Date: 22 November 2019
Orbit: 650 x 653 km, 98.0° (Epoch: 12 December)

Event Time Altitude Azimuth Distance (km) Brightness Sun altitude
Rises 22:18:56 0° 162° (SSE) 2,959 7.6 -8.7°
Reaches altitude 10° 22:21:08 10° 161° (SSE) 2,053 6.7 -9.1°
Maximum altitude 22:25:36 77° 76° (ENE) 674 4.1 -9.9°
Drops below altitude 10° 22:30:07 10° 350° (N) 2,067 6.7 -10.7°
Sets 22:32:20 0° 349° (N) 2,982 7.5 -11.1°
